Time,TemperatureF,DewpointF,PressureIn,WindDirection,WindDirectionDegrees,WindSpeedMPH,WindSpeedGustMPH,Humidity,HourlyPrecipIn,Conditions,Clouds,dailyrainin,SoftwareType,DateUTC
2013-09-18 00:00:00,64.2,56.1,30.11,SSE,151,1.0,6.0,75,0.00,,CLR,0.00,VWS V14.01,2013-09-18 05:00:00,
2013-09-18 00:05:00,64.3,55.8,30.11,SSE,162,4.0,6.0,74,0.00,,CLR,0.00,VWS V14.01,2013-09-18 05:05:00,
2013-09-18 00:10:00,64.4,55.9,30.11,South,187,0.0,4.0,74,0.00,,CLR,0.00,VWS V14.01,2013-09-18 05:10:00,
2013-09-18 00:16:00,64.5,56.0,30.11,SE,142,2.0,4.0,74,0.00,,CLR,0.00,VWS V14.01,2013-09-18 05:16:00,
2013-09-18 00:20:00,64.5,56.0,30.11,SW,217,2.0,4.0,74,0.00,,CLR,0.00,VWS V14.01,2013-09-18 05:20:00,
2013-09-18 00:21:00,64.6,56.1,30.11,SSE,155,1.0,4.0,74,0.00,,SCT120,0.00,VWS V14.01,2013-09-18 05:21:00,
2013-09-18 00:26:00,64.6,55.8,30.11,SSE,162,2.0,7.0,73,0.00,,SCT120,0.00,VWS V14.01,2013-09-18 05:26:00,
2013-09-18 00:30:00,64.6,55.8,30.11,South,179,2.0,7.0,73,0.00,,CLR,0.00,VWS V14.01,2013-09-18 05:30:00,
2013-09-18 00:31:00,64.7,55.9,30.11,SSE,153,3.0,5.0,73,0.00,,SCT120,0.00,VWS V14.01,2013-09-18 05:31:00,
2013-09-18 00:36:00,64.8,56.0,30.11,SSE,151,3.0,5.0,73,0.00,,SCT120,0.00,VWS V14.01,2013-09-18 05:36:00,
2013-09-18 00:40:00,64.8,56.0,30.11,SW,221,2.0,5.0,73,0.00,,CLR,0.00,VWS V14.01,2013-09-18 05:40:00,
2013-09-18 00:41:00,64.8,55.6,30.11,South,179,2.0,4.0,72,0.00,,SCT045,0.00,VWS V14.01,2013-09-18 05:41:00,
2013-09-18 00:46:00,65.0,55.8,30.11,SE,125,1.0,5.0,72,0.00,,SCT045,0.00,VWS V14.01,2013-09-18 05:46:00,
2013-09-18 00:50:00,65.0,55.8,30.11,SSE,155,1.0,6.0,72,0.00,,CLR,0.00,VWS V14.01,2013-09-18 05:50:00,
2013-09-18 00:52:00,65.0,55.8,30.11,SE,146,2.0,7.0,72,0.00,,SCT045,0.00,VWS V14.01,2013-09-18 05:52:00,
2013-09-18 00:57:00,65.1,55.9,30.11,WSW,241,3.0,7.0,72,0.00,,SCT045,0.00,VWS V14.01,2013-09-18 05:57:00,
2013-09-18 01:00:00,65.1,55.5,30.11,SSE,160,2.0,7.0,71,0.00,,CLR,0.00,VWS V14.01,2013-09-18 06:00:00,
2013-09-18 01:02:00,65.1,55.5,30.11,SSW,200,2.0,5.0,71,0.00,,CLR,0.00,VWS V14.01,2013-09-18 06:02:00,
2013-09-18 01:07:00,65.1,55.5,30.11,South,174,2.0,6.0,71,0.00,,CLR,0.00,VWS V14.01,2013-09-18 06:07:00,
2013-09-18 01:10:00,65.2,55.6,30.11,South,173,1.0,6.0,71,0.00,,CLR,0.00,VWS V14.01,2013-09-18 06:10:00,
2013-09-18 01:12:00,65.1,55.5,30.10,SE,132,3.0,4.0,71,0.00,,CLR,0.00,VWS V14.01,2013-09-18 06:12:00,
2013-09-18 01:17:00,65.0,55.4,30.10,SSW,207,1.0,6.0,71,0.00,,CLR,0.00,VWS V14.01,2013-09-18 06:17:00,
2013-09-18 01:20:00,65.0,55.4,30.10,SSE,165,2.0,6.0,71,0.00,,CLR,0.00,VWS V14.01,2013-09-18 06:20:00,
2013-09-18 01:22:00,65.0,55.4,30.10,SSE,153,2.0,4.0,71,0.00,,CLR,0.00,VWS V14.01,2013-09-18 06:22:00,
2013-09-18 01:27:00,64.9,55.7,30.10,SSE,155,3.0,4.0,72,0.00,,CLR,0.00,VWS V14.01,2013-09-18 06:27:00,
2013-09-18 01:30:00,64.9,55.7,30.10,South,172,4.0,4.0,72,0.00,,CLR,0.00,VWS V14.01,2013-09-18 06:30:00,
2013-09-18 01:32:00,64.9,55.7,30.10,SSE,167,0.0,6.0,72,0.00,,CLR,0.00,VWS V14.01,2013-09-18 06:32:00,
2013-09-18 01:37:00,64.8,55.6,30.10,SSE,162,2.0,6.0,72,0.00,,CLR,0.00,VWS V14.01,2013-09-18 06:37:00,
2013-09-18 01:40:00,64.8,55.6,30.10,SSW,210,1.0,6.0,72,0.00,,CLR,0.00,VWS V14.01,2013-09-18 06:40:00,
2013-09-18 01:42:00,64.7,55.9,30.10,South,170,4.0,5.0,73,0.00,,CLR,0.00,VWS V14.01,2013-09-18 06:42:00,
2013-09-18 01:47:00,64.7,55.9,30.10,South,187,2.0,5.0,73,0.00,,CLR,0.00,VWS V14.01,2013-09-18 06:47:00,
2013-09-18 01:50:00,64.7,55.9,30.10,SSE,157,2.0,5.0,73,0.00,,CLR,0.00,VWS V14.01,2013-09-18 06:50:00,
2013-09-18 01:52:00,64.6,55.8,30.10,SSW,208,2.0,5.0,73,0.00,,CLR,0.00,VWS V14.01,2013-09-18 06:52:00,
2013-09-18 01:57:00,64.5,56.0,30.10,South,172,1.0,5.0,74,0.00,,CLR,0.00,VWS V14.01,2013-09-18 06:57:00,
2013-09-18 02:00:00,64.5,56.0,30.10,South,184,2.0,5.0,74,0.00,,CLR,0.00,VWS V14.01,2013-09-18 07:00:00,
2013-09-18 02:02:00,64.4,55.9,30.10,SSW,205,1.0,6.0,74,0.00,,BKN046,0.00,VWS V14.01,2013-09-18 07:02:00,
2013-09-18 02:07:00,64.4,55.9,30.10,SSE,162,2.0,7.0,74,0.00,,BKN046,0.00,VWS V14.01,2013-09-18 07:07:00,
2013-09-18 02:10:00,64.4,55.9,30.10,South,176,3.0,7.0,74,0.00,,CLR,0.00,VWS V14.01,2013-09-18 07:10:00,
2013-09-18 02:12:00,64.5,56.0,30.09,South,176,1.0,6.0,74,0.00,,BKN046,0.00,VWS V14.01,2013-09-18 07:12:00,
2013-09-18 02:17:00,64.5,56.0,30.09,SSW,195,2.0,6.0,74,0.00,,BKN046,0.00,VWS V14.01,2013-09-18 07:17:00,
2013-09-18 02:20:00,64.5,56.0,30.09,SSW,200,0.0,6.0,74,0.00,,CLR,0.00,VWS V14.01,2013-09-18 07:20:00,
2013-09-18 02:22:00,64.6,56.1,30.09,South,188,0.0,3.0,74,0.00,,SCT046,0.00,VWS V14.01,2013-09-18 07:22:00,
2013-09-18 02:28:00,64.6,56.1,30.09,SSE,153,2.0,5.0,74,0.00,,SCT046,0.00,VWS V14.01,2013-09-18 07:28:00,
2013-09-18 02:30:00,64.6,56.1,30.09,SSE,152,1.0,5.0,74,0.00,,CLR,0.00,VWS V14.01,2013-09-18 07:30:00,
2013-09-18 02:33:00,64.7,56.2,30.09,SE,136,1.0,4.0,74,0.00,,SCT046,0.00,VWS V14.01,2013-09-18 07:33:00,
2013-09-18 02:38:00,64.8,56.3,30.09,SW,222,3.0,5.0,74,0.00,,SCT046,0.00,VWS V14.01,2013-09-18 07:38:00,
2013-09-18 02:40:00,64.8,56.3,30.09,SSW,211,3.0,5.0,74,0.00,,CLR,0.00,VWS V14.01,2013-09-18 07:40:00,
2013-09-18 02:43:00,65.0,56.5,30.09,SSW,205,1.0,6.0,74,0.00,,SCT120,0.00,VWS V14.01,2013-09-18 07:43:00,
2013-09-18 02:48:00,65.3,56.4,30.09,West,267,1.0,7.0,73,0.00,,SCT120,0.00,VWS V14.01,2013-09-18 07:48:00,
2013-09-18 02:50:00,65.3,56.4,30.09,West,267,1.0,7.0,73,0.00,,CLR,0.00,VWS V14.01,2013-09-18 07:50:00,
2013-09-18 02:53:00,65.5,56.6,30.09,SW,217,1.0,5.0,73,0.00,,SCT120,0.00,VWS V14.01,2013-09-18 07:53:00,
2013-09-18 02:58:00,65.6,56.3,30.09,SE,125,7.0,7.0,72,0.00,,SCT120,0.00,VWS V14.01,2013-09-18 07:58:00,
2013-09-18 03:00:00,65.6,56.3,30.09,SSE,153,0.0,6.0,72,0.00,,CLR,0.00,VWS V14.01,2013-09-18 08:00:00,
2013-09-18 03:03:00,65.8,56.5,30.09,SW,223,1.0,7.0,72,0.00,,BKN110,0.00,VWS V14.01,2013-09-18 08:03:00,
2013-09-18 03:08:00,65.9,56.6,30.09,SE,143,7.0,7.0,72,0.00,,BKN110,0.00,VWS V14.01,2013-09-18 08:08:00,
2013-09-18 03:10:00,65.9,56.6,30.09,South,174,5.0,7.0,72,0.00,,CLR,0.00,VWS V14.01,2013-09-18 08:10:00,
2013-09-18 03:13:00,66.0,56.7,30.08,SSW,210,3.0,8.0,72,0.00,,BKN110,0.00,VWS V14.01,2013-09-18 08:13:00,
2013-09-18 03:18:00,66.1,56.8,30.08,SE,132,1.0,1.0,72,0.00,,BKN110,0.00,VWS V14.01,2013-09-18 08:18:00,
2013-09-18 03:20:00,66.1,56.8,30.08,WSW,242,1.0,8.0,72,0.00,,CLR,0.00,VWS V14.01,2013-09-18 08:20:00,
2013-09-18 03:23:00,66.2,56.9,30.08,SW,215,1.0,5.0,72,0.00,,OVC110,0.00,VWS V14.01,2013-09-18 08:23:00,
2013-09-18 03:28:00,66.2,56.9,30.08,SSE,148,2.0,4.0,72,0.00,,OVC110,0.00,VWS V14.01,2013-09-18 08:28:00,
2013-09-18 03:30:00,66.2,56.9,30.08,SSW,204,4.0,6.0,72,0.00,,CLR,0.00,VWS V14.01,2013-09-18 08:30:00,
2013-09-18 03:33:00,66.3,57.0,30.08,SSW,212,2.0,5.0,72,0.00,,OVC110,0.00,VWS V14.01,2013-09-18 08:33:00,
2013-09-18 03:38:00,66.2,56.9,30.08,South,179,4.0,4.0,72,0.00,,OVC110,0.00,VWS V14.01,2013-09-18 08:38:00,
2013-09-18 03:40:00,66.3,57.0,30.08,SSE,160,1.0,5.0,72,0.00,,CLR,0.00,VWS V14.01,2013-09-18 08:40:00,
2013-09-18 03:43:00,66.2,56.9,30.08,SE,136,1.0,6.0,72,0.00,,OVC120,0.00,VWS V14.01,2013-09-18 08:43:00,
2013-09-18 03:48:00,66.2,57.3,30.08,SSW,196,0.0,4.0,73,0.00,,OVC120,0.00,VWS V14.01,2013-09-18 08:48:00,
2013-09-18 03:50:00,66.2,57.3,30.08,SE,143,4.0,6.0,73,0.00,,CLR,0.00,VWS V14.01,2013-09-18 08:50:00,
2013-09-18 03:53:00,66.2,57.3,30.08,SSE,150,0.0,4.0,73,0.00,,OVC120,0.00,VWS V14.01,2013-09-18 08:53:00,
2013-09-18 03:59:00,66.1,57.2,30.08,SE,125,2.0,3.0,73,0.00,,OVC120,0.00,VWS V14.01,2013-09-18 08:59:00,
2013-09-18 04:00:00,66.1,57.2,30.08,SW,225,1.0,6.0,73,0.00,,CLR,0.00,VWS V14.01,2013-09-18 09:00:00,
2013-09-18 04:04:00,66.1,57.2,30.08,South,188,1.0,3.0,73,0.00,,OVC120,0.00,VWS V14.01,2013-09-18 09:04:00,
2013-09-18 04:09:00,66.0,57.5,30.07,SE,145,0.0,1.0,74,0.00,,OVC120,0.00,VWS V14.01,2013-09-18 09:09:00,
2013-09-18 04:10:00,66.0,57.1,30.07,SE,146,1.0,5.0,73,0.00,,CLR,0.00,VWS V14.01,2013-09-18 09:10:00,
2013-09-18 04:14:00,65.9,57.4,30.07,South,172,0.0,3.0,74,0.00,,OVC120,0.00,VWS V14.01,2013-09-18 09:14:00,
2013-09-18 04:19:00,65.7,57.2,30.07,South,175,2.0,2.0,74,0.00,,OVC120,0.00,VWS V14.01,2013-09-18 09:19:00,
2013-09-18 04:20:00,65.8,57.3,30.07,SE,142,2.0,3.0,74,0.00,,CLR,0.00,VWS V14.01,2013-09-18 09:20:00,
2013-09-18 04:24:00,65.6,57.5,30.07,WSW,257,0.0,3.0,75,0.00,,OVC120,0.00,VWS V14.01,2013-09-18 09:24:00,
2013-09-18 04:29:00,65.5,57.4,30.07,WSW,239,0.0,1.0,75,0.00,,OVC120,0.00,VWS V14.01,2013-09-18 09:29:00,
2013-09-18 04:30:00,65.5,57.4,30.07,SW,221,1.0,5.0,75,0.00,,CLR,0.00,VWS V14.01,2013-09-18 09:30:00,
2013-09-18 04:34:00,65.4,57.3,30.07,ESE,102,3.0,6.0,75,0.00,,OVC120,0.00,VWS V14.01,2013-09-18 09:34:00,
2013-09-18 04:39:00,65.2,57.5,30.07,SE,135,1.0,2.0,76,0.00,,OVC120,0.00,VWS V14.01,2013-09-18 09:39:00,
2013-09-18 04:40:00,65.3,57.2,30.07,SSE,156,1.0,6.0,75,0.00,,CLR,0.00,VWS V14.01,2013-09-18 09:40:00,
2013-09-18 04:44:00,65.1,57.4,30.07,SSE,165,0.0,3.0,76,0.00,,SCT110,0.00,VWS V14.01,2013-09-18 09:44:00,
2013-09-18 04:49:00,64.9,57.5,30.07,SSE,150,2.0,4.0,77,0.00,,SCT110,0.00,VWS V14.01,2013-09-18 09:49:00,
2013-09-18 04:50:00,65.0,57.3,30.07,SSW,195,3.0,4.0,76,0.00,,CLR,0.00,VWS V14.01,2013-09-18 09:50:00,
2013-09-18 04:54:00,64.8,57.4,30.07,SSW,198,6.0,8.0,77,0.00,,SCT110,0.00,VWS V14.01,2013-09-18 09:54:00,
2013-09-18 04:59:00,64.7,57.3,30.07,South,191,5.0,5.0,77,0.00,,SCT110,0.00,VWS V14.01,2013-09-18 09:59:00,
2013-09-18 05:00:00,64.7,57.3,30.07,SE,141,0.0,8.0,77,0.00,,CLR,0.00,VWS V14.01,2013-09-18 10:00:00,
2013-09-18 05:04:00,64.5,57.5,30.07,South,176,1.0,5.0,78,0.00,,SCT120,0.00,VWS V14.01,2013-09-18 10:04:00,
2013-09-18 05:09:00,64.5,57.5,30.07,South,174,0.0,3.0,78,0.00,,SCT120,0.00,VWS V14.01,2013-09-18 10:09:00,
2013-09-18 05:10:00,64.5,57.5,30.07,SSE,154,2.0,5.0,78,0.00,,CLR,0.00,VWS V14.01,2013-09-18 10:10:00,
2013-09-18 05:14:00,64.5,57.5,30.07,SSE,159,1.0,3.0,78,0.00,,SCT120,0.00,VWS V14.01,2013-09-18 10:14:00,
2013-09-18 05:20:00,64.4,57.8,30.06,SSW,203,0.0,2.0,79,0.00,,SCT120,0.00,VWS V14.01,2013-09-18 10:20:00,
2013-09-18 05:25:00,64.4,57.8,30.06,SE,137,1.0,3.0,79,0.00,,SCT120,0.00,VWS V14.01,2013-09-18 10:25:00,
2013-09-18 05:30:00,64.4,57.8,30.06,SE,131,3.0,3.0,79,0.00,,CLR,0.00,VWS V14.01,2013-09-18 10:30:00,
2013-09-18 05:31:00,64.4,57.8,30.06,SSE,153,1.0,6.0,79,0.00,,SCT120,0.00,VWS V14.01,2013-09-18 10:31:00,
2013-09-18 05:36:00,64.3,57.7,30.06,SSE,167,3.0,6.0,79,0.00,,SCT120,0.00,VWS V14.01,2013-09-18 10:36:00,
2013-09-18 05:40:00,64.3,57.7,30.06,ESE,113,1.0,6.0,79,0.00,,CLR,0.00,VWS V14.01,2013-09-18 10:40:00,
2013-09-18 05:41:00,64.3,58.0,30.06,SE,146,0.0,3.0,80,0.00,,SCT120,0.00,VWS V14.01,2013-09-18 10:41:00,
2013-09-18 05:46:00,64.3,58.0,30.06,SSE,159,3.0,4.0,80,0.00,,SCT120,0.00,VWS V14.01,2013-09-18 10:46:00,
2013-09-18 05:50:00,64.3,58.0,30.06,South,172,0.0,5.0,80,0.00,,CLR,0.00,VWS V14.01,2013-09-18 10:50:00,
2013-09-18 05:51:00,64.3,58.0,30.06,South,181,3.0,4.0,80,0.00,,SCT120,0.00,VWS V14.01,2013-09-18 10:51:00,
2013-09-18 05:56:00,64.2,57.9,30.06,South,170,1.0,5.0,80,0.00,,SCT120,0.00,VWS V14.01,2013-09-18 10:56:00,
2013-09-18 06:00:00,64.2,57.9,30.06,SW,233,0.0,5.0,80,0.00,,CLR,0.00,VWS V14.01,2013-09-18 11:00:00,
2013-09-18 06:01:00,64.2,57.9,30.06,SSE,152,1.0,4.0,80,0.00,,SCT075,0.00,VWS V14.01,2013-09-18 11:01:00,
2013-09-18 06:06:00,64.2,58.3,30.06,SSE,166,2.0,5.0,81,0.00,,SCT075,0.00,VWS V14.01,2013-09-18 11:06:00,
2013-09-18 06:10:00,64.2,58.3,30.06,SSE,165,2.0,5.0,81,0.00,,CLR,0.00,VWS V14.01,2013-09-18 11:10:00,
2013-09-18 06:11:00,64.1,58.2,30.06,SSE,153,2.0,4.0,81,0.00,,SCT075,0.00,VWS V14.01,2013-09-18 11:11:00,
2013-09-18 06:16:00,64.1,58.2,30.07,SSE,168,2.0,4.0,81,0.00,,SCT075,0.00,VWS V14.01,2013-09-18 11:16:00,
2013-09-18 06:20:00,64.1,58.2,30.07,SSW,210,2.0,4.0,81,0.00,,CLR,0.00,VWS V14.01,2013-09-18 11:20:00,
2013-09-18 06:21:00,64.1,58.2,30.06,SSW,198,1.0,5.0,81,0.00,,SCT110,0.00,VWS V14.01,2013-09-18 11:21:00,
2013-09-18 06:26:00,64.1,58.5,30.07,SE,138,2.0,5.0,82,0.00,,SCT110,0.00,VWS V14.01,2013-09-18 11:26:00,
2013-09-18 06:30:00,64.1,58.5,30.07,South,173,0.0,5.0,82,0.00,,CLR,0.00,VWS V14.01,2013-09-18 11:30:00,
2013-09-18 06:31:00,64.1,58.5,30.07,SSW,193,3.0,3.0,82,0.00,,SCT110,0.00,VWS V14.01,2013-09-18 11:31:00,
2013-09-18 06:36:00,64.0,58.4,30.07,SSE,162,1.0,4.0,82,0.00,,SCT110,0.00,VWS V14.01,2013-09-18 11:36:00,
2013-09-18 06:40:00,63.9,58.3,30.07,SSE,160,2.0,4.0,82,0.00,,CLR,0.00,VWS V14.01,2013-09-18 11:40:00,
2013-09-18 06:42:00,63.9,58.3,30.07,SSW,203,0.0,2.0,82,0.00,,SCT110,0.00,VWS V14.01,2013-09-18 11:42:00,
2013-09-18 06:47:00,63.8,58.5,30.07,South,173,1.0,4.0,83,0.00,,SCT110,0.00,VWS V14.01,2013-09-18 11:47:00,
2013-09-18 06:50:00,63.8,58.5,30.07,SSE,167,3.0,4.0,83,0.00,,CLR,0.00,VWS V14.01,2013-09-18 11:50:00,
2013-09-18 06:52:00,63.8,58.5,30.07,SSW,207,0.0,5.0,83,0.00,,SCT110,0.00,VWS V14.01,2013-09-18 11:52:00,
2013-09-18 06:57:00,63.7,58.5,30.07,SSW,205,2.0,5.0,83,0.00,,SCT110,0.00,VWS V14.01,2013-09-18 11:57:00,
2013-09-18 07:00:00,63.7,58.5,30.07,South,176,1.0,5.0,83,0.00,,CLR,0.00,VWS V14.01,2013-09-18 12:00:00,
2013-09-18 07:02:00,63.6,58.7,30.07,SE,127,1.0,3.0,84,0.00,,OVC080,0.00,VWS V14.01,2013-09-18 12:02:00,
2013-09-18 07:07:00,63.5,58.6,30.07,South,174,1.0,5.0,84,0.00,,OVC080,0.00,VWS V14.01,2013-09-18 12:07:00,
2013-09-18 07:10:00,63.5,58.6,30.07,SSE,149,3.0,5.0,84,0.00,,CLR,0.00,VWS V14.01,2013-09-18 12:10:00,
2013-09-18 07:12:00,63.5,58.6,30.07,SSE,166,2.0,5.0,84,0.00,,OVC080,0.00,VWS V14.01,2013-09-18 12:12:00,
2013-09-18 07:17:00,63.4,58.5,30.07,SE,146,1.0,5.0,84,0.00,,OVC080,0.00,VWS V14.01,2013-09-18 12:17:00,
2013-09-18 07:20:00,63.4,58.5,30.07,SE,146,2.0,5.0,84,0.00,,CLR,0.00,VWS V14.01,2013-09-18 12:20:00,
2013-09-18 07:22:00,63.4,58.8,30.07,ESE,115,3.0,4.0,85,0.00,,OVC080,0.00,VWS V14.01,2013-09-18 12:22:00,
2013-09-18 07:27:00,63.5,58.9,30.07,SSE,163,2.0,4.0,85,0.00,,OVC080,0.00,VWS V14.01,2013-09-18 12:27:00,
2013-09-18 07:30:00,63.5,58.9,30.07,SSW,193,2.0,4.0,85,0.00,,CLR,0.00,VWS V14.01,2013-09-18 12:30:00,
2013-09-18 07:32:00,63.5,58.9,30.07,SSE,166,2.0,3.0,85,0.00,,OVC080,0.00,VWS V14.01,2013-09-18 12:32:00,
2013-09-18 07:37:00,63.7,59.1,30.07,SE,136,2.0,5.0,85,0.00,,OVC080,0.00,VWS V14.01,2013-09-18 12:37:00,
2013-09-18 07:40:00,63.7,59.1,30.07,SSE,162,2.0,5.0,85,0.00,,CLR,0.00,VWS V14.01,2013-09-18 12:40:00,
2013-09-18 07:43:00,64.1,59.5,30.07,SSW,195,0.0,3.0,85,0.00,,OVC080,0.00,VWS V14.01,2013-09-18 12:43:00,
2013-09-18 07:48:00,64.3,59.7,30.07,SSW,200,1.0,4.0,85,0.00,,OVC080,0.00,VWS V14.01,2013-09-18 12:48:00,
2013-09-18 07:50:00,64.3,59.7,30.07,SSE,148,1.0,4.0,85,0.00,,CLR,0.00,VWS V14.01,2013-09-18 12:50:00,
2013-09-18 07:53:00,64.7,60.1,30.07,SSE,162,3.0,6.0,85,0.00,,OVC080,0.00,VWS V14.01,2013-09-18 12:53:00,
2013-09-18 07:58:00,65.4,60.5,30.07,SE,138,2.0,6.0,84,0.00,,OVC080,0.00,VWS V14.01,2013-09-18 12:58:00,
2013-09-18 08:00:00,65.4,60.5,30.07,SE,138,2.0,6.0,84,0.00,,CLR,0.00,VWS V14.01,2013-09-18 13:00:00,
2013-09-18 08:03:00,65.9,60.6,30.07,SSW,194,1.0,3.0,83,0.00,,BKN080,0.00,VWS V14.01,2013-09-18 13:03:00,
2013-09-18 08:08:00,66.4,61.1,30.07,SW,224,1.0,2.0,83,0.00,,BKN080,0.00,VWS V14.01,2013-09-18 13:08:00,
2013-09-18 08:10:00,66.4,61.1,30.07,SE,129,1.0,4.0,83,0.00,,CLR,0.00,VWS V14.01,2013-09-18 13:10:00,
2013-09-18 08:13:00,66.8,61.5,30.07,SSW,203,1.0,5.0,83,0.00,,BKN080,0.00,VWS V14.01,2013-09-18 13:13:00,
2013-09-18 08:18:00,66.7,61.4,30.07,SSE,150,2.0,4.0,83,0.00,,BKN080,0.00,VWS V14.01,2013-09-18 13:18:00,
2013-09-18 08:20:00,66.8,61.5,30.07,SSE,160,4.0,8.0,83,0.00,,CLR,0.00,VWS V14.01,2013-09-18 13:20:00,
2013-09-18 08:23:00,66.7,61.4,30.07,South,187,0.0,4.0,83,0.00,,BKN080,0.00,VWS V14.01,2013-09-18 13:23:00,
2013-09-18 08:28:00,66.7,61.7,30.07,SSE,158,4.0,4.0,84,0.00,,BKN080,0.00,VWS V14.01,2013-09-18 13:28:00,
2013-09-18 08:30:00,66.7,61.7,30.07,SSW,198,0.0,4.0,84,0.00,,CLR,0.00,VWS V14.01,2013-09-18 13:30:00,
2013-09-18 08:34:00,66.7,61.7,30.07,South,186,0.0,5.0,84,0.00,,BKN080,0.00,VWS V14.01,2013-09-18 13:34:00,
2013-09-18 08:39:00,66.9,61.9,30.06,SSW,198,0.0,5.0,84,0.00,,BKN080,0.00,VWS V14.01,2013-09-18 13:39:00,
2013-09-18 08:40:00,66.8,61.8,30.06,SSE,155,1.0,5.0,84,0.00,,CLR,0.00,VWS V14.01,2013-09-18 13:40:00,
2013-09-18 08:44:00,67.0,62.0,30.06,WSW,245,3.0,6.0,84,0.00,,CLR,0.00,VWS V14.01,2013-09-18 13:44:00,
2013-09-18 08:49:00,67.2,62.2,30.06,SSE,162,3.0,4.0,84,0.00,,CLR,0.00,VWS V14.01,2013-09-18 13:49:00,
2013-09-18 08:50:00,67.1,62.1,30.06,SSE,147,2.0,6.0,84,0.00,,CLR,0.00,VWS V14.01,2013-09-18 13:50:00,
2013-09-18 08:55:00,67.2,62.5,30.06,SSE,163,4.0,6.0,85,0.00,,CLR,0.00,VWS V14.01,2013-09-18 13:55:00,
2013-09-18 09:00:00,67.3,62.6,30.06,SSE,160,4.0,4.0,85,0.00,,BKN080,0.00,VWS V14.01,2013-09-18 14:00:00,
2013-09-18 09:05:00,67.4,62.7,30.06,South,186,1.0,5.0,85,0.00,,BKN080,0.00,VWS V14.01,2013-09-18 14:05:00,
2013-09-18 09:10:00,67.5,62.8,30.06,SSE,166,1.0,5.0,85,0.00,,CLR,0.00,VWS V14.01,2013-09-18 14:10:00,
2013-09-18 09:11:00,67.6,62.9,30.06,SSW,211,1.0,4.0,85,0.00,,BKN080,0.00,VWS V14.01,2013-09-18 14:11:00,
2013-09-18 09:16:00,67.9,63.2,30.06,ESE,120,5.0,5.0,85,0.00,,BKN080,0.00,VWS V14.01,2013-09-18 14:16:00,
2013-09-18 09:20:00,68.1,63.4,30.07,SSW,204,6.0,7.0,85,0.00,,CLR,0.00,VWS V14.01,2013-09-18 14:20:00,
2013-09-18 09:21:00,68.4,63.4,30.07,ESE,111,3.0,6.0,84,0.00,,BKN080,0.00,VWS V14.01,2013-09-18 14:21:00,
2013-09-18 09:26:00,69.1,64.1,30.07,SW,236,1.0,6.0,84,0.00,,BKN080,0.00,VWS V14.01,2013-09-18 14:26:00,
2013-09-18 09:30:00,69.4,64.0,30.07,SE,137,2.0,6.0,83,0.00,,CLR,0.00,VWS V14.01,2013-09-18 14:30:00,
2013-09-18 09:31:00,69.8,64.1,30.06,SW,236,5.0,6.0,82,0.00,,BKN080,0.00,VWS V14.01,2013-09-18 14:31:00,
2013-09-18 09:36:00,69.9,64.2,30.06,ESE,118,5.0,7.0,82,0.00,,BKN080,0.00,VWS V14.01,2013-09-18 14:36:00,
2013-09-18 09:40:00,69.9,63.8,30.06,SSE,163,5.0,7.0,81,0.00,,CLR,0.00,VWS V14.01,2013-09-18 14:40:00,
2013-09-18 09:41:00,70.1,64.4,30.07,SSE,152,2.0,6.0,82,0.00,,SCT080,0.00,VWS V14.01,2013-09-18 14:41:00,
2013-09-18 09:47:00,70.6,64.5,30.06,SE,145,1.0,7.0,81,0.00,,SCT080,0.00,VWS V14.01,2013-09-18 14:47:00,
2013-09-18 09:50:00,70.8,64.7,30.06,SSE,159,2.0,7.0,81,0.00,,CLR,0.00,VWS V14.01,2013-09-18 14:50:00,
2013-09-18 09:52:00,71.4,64.9,30.06,South,181,1.0,6.0,80,0.00,,SCT080,0.00,VWS V14.01,2013-09-18 14:52:00,
2013-09-18 09:57:00,72.3,65.4,30.06,West,281,3.0,6.0,79,0.00,,SCT080,0.00,VWS V14.01,2013-09-18 14:57:00,
2013-09-18 10:00:00,72.4,65.5,30.06,South,180,0.0,6.0,79,0.00,,CLR,0.00,VWS V14.01,2013-09-18 15:00:00,
2013-09-18 10:02:00,73.1,65.8,30.06,SSW,197,1.0,5.0,78,0.00,,SCT080,0.00,VWS V14.01,2013-09-18 15:02:00,
2013-09-18 10:07:00,73.6,65.6,30.06,SE,143,1.0,5.0,76,0.00,,SCT080,0.00,VWS V14.01,2013-09-18 15:07:00,
2013-09-18 10:10:00,73.6,65.6,30.06,South,184,7.0,7.0,76,0.00,,CLR,0.00,VWS V14.01,2013-09-18 15:10:00,
2013-09-18 10:12:00,73.4,65.8,30.06,West,264,2.0,7.0,77,0.00,,SCT080,0.00,VWS V14.01,2013-09-18 15:12:00,
2013-09-18 10:18:00,73.4,65.8,30.06,SW,236,1.0,7.0,77,0.00,,SCT080,0.00,VWS V14.01,2013-09-18 15:18:00,
2013-09-18 10:20:00,73.3,65.7,30.05,West,277,3.0,7.0,77,0.00,,CLR,0.00,VWS V14.01,2013-09-18 15:20:00,
2013-09-18 10:23:00,73.3,66.0,30.06,WSW,249,1.0,9.0,78,0.00,,SCT080,0.00,VWS V14.01,2013-09-18 15:23:00,
2013-09-18 10:28:00,73.3,66.0,30.06,SW,224,4.0,9.0,78,0.00,,SCT080,0.00,VWS V14.01,2013-09-18 15:28:00,
2013-09-18 10:30:00,73.3,66.0,30.06,SE,143,6.0,9.0,78,0.00,,CLR,0.00,VWS V14.01,2013-09-18 15:30:00,
2013-09-18 10:34:00,73.9,67.0,30.06,WNW,287,1.0,7.0,79,0.00,,SCT080,0.00,VWS V14.01,2013-09-18 15:34:00,
2013-09-18 10:39:00,74.5,66.8,30.05,ESE,121,1.0,3.0,77,0.00,,SCT080,0.00,VWS V14.01,2013-09-18 15:39:00,
2013-09-18 10:40:00,74.4,66.7,30.05,SSE,166,1.0,7.0,77,0.00,,CLR,0.00,VWS V14.01,2013-09-18 15:40:00,
2013-09-18 10:44:00,74.8,67.1,30.05,SSE,150,2.0,7.0,77,0.00,,BKN080,0.00,VWS V14.01,2013-09-18 15:44:00,
2013-09-18 10:49:00,74.7,67.0,30.05,SSE,156,1.0,2.0,77,0.00,,BKN080,0.00,VWS V14.01,2013-09-18 15:49:00,
2013-09-18 10:50:00,74.8,67.1,30.05,NNW,332,2.0,8.0,77,0.00,,CLR,0.00,VWS V14.01,2013-09-18 15:50:00,
2013-09-18 10:54:00,75.2,67.5,30.05,West,276,5.0,7.0,77,0.00,,BKN080,0.00,VWS V14.01,2013-09-18 15:54:00,
2013-09-18 10:59:00,75.5,67.4,30.04,WNW,283,2.0,8.0,76,0.00,,BKN080,0.00,VWS V14.01,2013-09-18 15:59:00,
2013-09-18 11:00:00,75.4,67.3,30.04,West,273,3.0,9.0,76,0.00,,CLR,0.00,VWS V14.01,2013-09-18 16:00:00,
2013-09-18 11:02:00,75.9,67.8,30.04,South,184,2.0,8.0,76,0.00,,SCT080,0.00,VWS V14.01,2013-09-18 16:02:00,
2013-09-18 11:07:00,76.2,67.7,30.04,West,271,2.0,8.0,75,0.00,,SCT080,0.00,VWS V14.01,2013-09-18 16:07:00,
2013-09-18 11:10:00,76.2,67.7,30.04,West,269,2.0,8.0,75,0.00,,CLR,0.00,VWS V14.01,2013-09-18 16:10:00,
2013-09-18 11:12:00,76.0,67.5,30.04,SW,229,2.0,8.0,75,0.00,,SCT080,0.00,VWS V14.01,2013-09-18 16:12:00,
2013-09-18 11:18:00,76.5,68.0,30.03,WSW,245,2.0,8.0,75,0.00,,SCT080,0.00,VWS V14.01,2013-09-18 16:18:00,
2013-09-18 11:20:00,76.6,68.1,30.03,WNW,294,2.0,8.0,75,0.00,,CLR,0.00,VWS V14.01,2013-09-18 16:20:00,
2013-09-18 11:23:00,77.4,68.5,30.03,WSW,248,1.0,6.0,74,0.00,,SCT080,0.00,VWS V14.01,2013-09-18 16:23:00,
2013-09-18 11:28:00,77.9,68.6,30.04,SE,129,5.0,7.0,73,0.00,,SCT080,0.00,VWS V14.01,2013-09-18 16:28:00,
2013-09-18 11:30:00,77.9,68.6,30.04,SE,129,5.0,7.0,73,0.00,,CLR,0.00,VWS V14.01,2013-09-18 16:30:00,
2013-09-18 11:33:00,78.5,68.3,30.04,SE,143,3.0,7.0,71,0.00,,SCT080,0.00,VWS V14.01,2013-09-18 16:33:00,
2013-09-18 11:38:00,78.0,67.8,30.04,West,281,3.0,3.0,71,0.00,,SCT080,0.00,VWS V14.01,2013-09-18 16:38:00,
2013-09-18 11:40:00,78.0,67.8,30.04,WNW,288,3.0,12.0,71,0.00,,CLR,0.00,VWS V14.01,2013-09-18 16:40:00,
2013-09-18 11:43:00,77.1,67.8,30.03,SW,217,3.0,6.0,73,0.00,,SCT055,0.00,VWS V14.01,2013-09-18 16:43:00,
2013-09-18 11:48:00,77.2,68.3,30.03,West,274,0.0,3.0,74,0.00,,SCT055,0.00,VWS V14.01,2013-09-18 16:48:00,
2013-09-18 11:50:00,77.2,68.3,30.03,WSW,255,2.0,11.0,74,0.00,,CLR,0.00,VWS V14.01,2013-09-18 16:50:00,
2013-09-18 11:53:00,77.8,68.5,30.03,South,186,2.0,9.0,73,0.00,,SCT055,0.00,VWS V14.01,2013-09-18 16:53:00,
2013-09-18 11:59:00,78.3,68.5,30.03,SE,135,5.0,8.0,72,0.00,,SCT055,0.00,VWS V14.01,2013-09-18 16:59:00,
2013-09-18 12:00:00,78.3,68.5,30.03,South,191,2.0,9.0,72,0.00,,CLR,0.00,VWS V14.01,2013-09-18 17:00:00,
2013-09-18 12:04:00,78.7,68.9,30.02,SSW,197,1.0,8.0,72,0.00,,CLR,0.00,VWS V14.01,2013-09-18 17:04:00,
2013-09-18 12:09:00,79.6,69.0,30.02,West,261,2.0,5.0,70,0.00,,CLR,0.00,VWS V14.01,2013-09-18 17:09:00,
2013-09-18 12:10:00,79.5,69.7,30.02,West,269,2.0,8.0,72,0.00,,CLR,0.00,VWS V14.01,2013-09-18 17:10:00,
2013-09-18 12:14:00,79.9,68.8,30.02,NW,326,2.0,7.0,69,0.00,,CLR,0.00,VWS V14.01,2013-09-18 17:14:00,
2013-09-18 12:19:00,80.2,69.1,30.02,SW,219,2.0,8.0,69,0.00,,CLR,0.00,VWS V14.01,2013-09-18 17:19:00,
2013-09-18 12:20:00,80.0,68.9,30.02,West,259,4.0,7.0,69,0.00,,CLR,0.00,VWS V14.01,2013-09-18 17:20:00,
2013-09-18 12:24:00,80.8,69.3,30.02,West,260,3.0,10.0,68,0.00,,CLR,0.00,VWS V14.01,2013-09-18 17:24:00,
2013-09-18 12:29:00,81.0,69.4,30.02,SW,215,3.0,10.0,68,0.00,,CLR,0.00,VWS V14.01,2013-09-18 17:29:00,
2013-09-18 12:30:00,81.0,69.0,30.02,West,276,2.0,10.0,67,0.00,,CLR,0.00,VWS V14.01,2013-09-18 17:30:00,
2013-09-18 12:34:00,81.3,69.3,30.02,WNW,289,5.0,10.0,67,0.00,,CLR,0.00,VWS V14.01,2013-09-18 17:34:00,
2013-09-18 12:39:00,81.4,69.4,30.01,WSW,239,1.0,4.0,67,0.00,,CLR,0.00,VWS V14.01,2013-09-18 17:39:00,
2013-09-18 12:40:00,81.4,69.4,30.01,West,262,3.0,10.0,67,0.00,,CLR,0.00,VWS V14.01,2013-09-18 17:40:00,
2013-09-18 12:44:00,82.0,69.5,30.01,ESE,112,4.0,7.0,66,0.00,,CLR,0.00,VWS V14.01,2013-09-18 17:44:00,
2013-09-18 12:49:00,82.3,69.8,30.01,WNW,284,5.0,5.0,66,0.00,,CLR,0.00,VWS V14.01,2013-09-18 17:49:00,
2013-09-18 12:50:00,82.3,69.4,30.00,WSW,237,1.0,10.0,65,0.00,,CLR,0.00,VWS V14.01,2013-09-18 17:50:00,
2013-09-18 12:54:00,82.3,68.9,30.00,SE,143,7.0,14.0,64,0.00,,CLR,0.00,VWS V14.01,2013-09-18 17:54:00,
2013-09-18 12:59:00,82.0,69.1,30.00,West,260,3.0,4.0,65,0.00,,CLR,0.00,VWS V14.01,2013-09-18 17:59:00,
2013-09-18 13:00:00,82.0,69.1,30.00,SE,138,2.0,14.0,65,0.00,,CLR,0.00,VWS V14.01,2013-09-18 18:00:00,
2013-09-18 13:04:00,82.4,69.5,30.00,SSE,148,2.0,11.0,65,0.00,,CLR,0.00,VWS V14.01,2013-09-18 18:04:00,
2013-09-18 13:10:00,82.6,69.2,29.99,SSE,150,6.0,13.0,64,0.00,,CLR,0.00,VWS V14.01,2013-09-18 18:10:00,
2013-09-18 13:15:00,82.5,69.6,30.00,WNW,295,5.0,13.0,65,0.00,,CLR,0.00,VWS V14.01,2013-09-18 18:15:00,
2013-09-18 13:20:00,82.6,69.2,29.99,SSW,203,4.0,8.0,64,0.00,,CLR,0.00,VWS V14.01,2013-09-18 18:20:00,
2013-09-18 13:25:00,82.9,69.9,29.99,SW,218,2.0,10.0,65,0.00,,CLR,0.00,VWS V14.01,2013-09-18 18:25:00,
2013-09-18 13:30:00,83.2,69.8,29.99,WSW,240,4.0,8.0,64,0.00,,CLR,0.00,VWS V14.01,2013-09-18 18:30:00,
2013-09-18 13:36:00,83.6,70.1,29.98,WSW,255,4.0,8.0,64,0.00,,CLR,0.00,VWS V14.01,2013-09-18 18:36:00,
2013-09-18 13:40:00,83.7,69.8,29.98,SW,224,4.0,11.0,63,0.00,,CLR,0.00,VWS V14.01,2013-09-18 18:40:00,
2013-09-18 13:41:00,83.7,69.3,29.98,NNE,21,5.0,9.0,62,0.00,,CLR,0.00,VWS V14.01,2013-09-18 18:41:00,
2013-09-18 13:46:00,84.0,69.6,29.98,WSW,245,2.0,9.0,62,0.00,,CLR,0.00,VWS V14.01,2013-09-18 18:46:00,
2013-09-18 13:50:00,84.0,69.6,29.98,SSE,165,2.0,9.0,62,0.00,,CLR,0.00,VWS V14.01,2013-09-18 18:50:00,
2013-09-18 13:51:00,83.9,69.5,29.98,South,187,2.0,11.0,62,0.00,,CLR,0.00,VWS V14.01,2013-09-18 18:51:00,
2013-09-18 13:57:00,83.9,69.5,29.98,WSW,243,3.0,11.0,62,0.00,,CLR,0.00,VWS V14.01,2013-09-18 18:57:00,
2013-09-18 14:00:00,83.8,69.4,29.97,SW,224,4.0,11.0,62,0.00,,CLR,0.00,VWS V14.01,2013-09-18 19:00:00,
2013-09-18 14:02:00,83.5,69.6,29.97,SW,231,6.0,13.0,63,0.00,,CLR,0.00,VWS V14.01,2013-09-18 19:02:00,
2013-09-18 14:07:00,83.7,69.8,29.96,SSE,153,2.0,13.0,63,0.00,,CLR,0.00,VWS V14.01,2013-09-18 19:07:00,
2013-09-18 14:10:00,83.8,69.9,29.96,WSW,253,4.0,13.0,63,0.00,,CLR,0.00,VWS V14.01,2013-09-18 19:10:00,
2013-09-18 14:13:00,84.5,70.1,29.96,SE,146,6.0,9.0,62,0.00,,CLR,0.00,VWS V14.01,2013-09-18 19:13:00,
2013-09-18 14:18:00,84.6,69.7,29.96,SSE,162,4.0,4.0,61,0.00,,CLR,0.00,VWS V14.01,2013-09-18 19:18:00,
2013-09-18 14:20:00,84.6,69.7,29.96,SW,232,3.0,14.0,61,0.00,,CLR,0.00,VWS V14.01,2013-09-18 19:20:00,
2013-09-18 14:23:00,85.0,70.1,29.96,West,277,2.0,8.0,61,0.00,,SCT100,0.00,VWS V14.01,2013-09-18 19:23:00,
2013-09-18 14:28:00,85.3,69.8,29.95,WNW,295,6.0,6.0,60,0.00,,SCT100,0.00,VWS V14.01,2013-09-18 19:28:00,
2013-09-18 14:30:00,85.3,69.8,29.95,SW,236,2.0,8.0,60,0.00,,CLR,0.00,VWS V14.01,2013-09-18 19:30:00,
2013-09-18 14:34:00,84.7,69.3,29.95,West,276,1.0,9.0,60,0.00,,SCT100,0.00,VWS V14.01,2013-09-18 19:34:00,
2013-09-18 14:40:00,84.8,69.9,29.95,SSW,201,2.0,6.0,61,0.00,,SCT100,0.00,VWS V14.01,2013-09-18 19:40:00,
2013-09-18 14:45:00,85.1,69.7,29.95,SE,131,1.0,11.0,60,0.00,,SCT100,0.00,VWS V14.01,2013-09-18 19:45:00,
2013-09-18 14:50:00,85.3,69.8,29.95,SSW,209,3.0,11.0,60,0.00,,CLR,0.00,VWS V14.01,2013-09-18 19:50:00,
2013-09-18 14:51:00,85.4,69.9,29.94,West,280,3.0,6.0,60,0.00,,SCT100,0.00,VWS V14.01,2013-09-18 19:51:00,
2013-09-18 14:56:00,85.7,69.7,29.94,SSW,208,2.0,8.0,59,0.00,,SCT100,0.00,VWS V14.01,2013-09-18 19:56:00,
2013-09-18 15:00:00,85.8,69.8,29.94,WNW,284,2.0,8.0,59,0.00,,CLR,0.00,VWS V14.01,2013-09-18 20:00:00,
2013-09-18 15:01:00,86.0,70.0,29.94,SSW,212,9.0,11.0,59,0.00,,SCT100,0.00,VWS V14.01,2013-09-18 20:01:00,
2013-09-18 15:06:00,85.6,69.6,29.94,SE,142,1.0,11.0,59,0.00,,SCT100,0.00,VWS V14.01,2013-09-18 20:06:00,
2013-09-18 15:10:00,85.5,69.6,29.94,South,183,3.0,11.0,59,0.00,,CLR,0.00,VWS V14.01,2013-09-18 20:10:00,
2013-09-18 15:11:00,85.3,69.8,29.94,West,260,4.0,6.0,60,0.00,,SCT100,0.00,VWS V14.01,2013-09-18 20:11:00,
2013-09-18 15:17:00,85.3,69.8,29.94,WSW,255,4.0,8.0,60,0.00,,SCT100,0.00,VWS V14.01,2013-09-18 20:17:00,
2013-09-18 15:20:00,85.2,69.3,29.94,SW,229,1.0,8.0,59,0.00,,CLR,0.00,VWS V14.01,2013-09-18 20:20:00,
2013-09-18 15:22:00,85.4,69.9,29.94,WSW,243,6.0,12.0,60,0.00,,SCT090,0.00,VWS V14.01,2013-09-18 20:22:00,
2013-09-18 15:27:00,85.3,69.4,29.93,NW,311,5.0,15.0,59,0.00,,SCT090,0.00,VWS V14.01,2013-09-18 20:27:00,
2013-09-18 15:30:00,85.3,69.8,29.93,WNW,293,3.0,15.0,60,0.00,,CLR,0.00,VWS V14.01,2013-09-18 20:30:00,
2013-09-18 15:33:00,85.3,69.8,29.93,West,262,1.0,10.0,60,0.00,,SCT090,0.00,VWS V14.01,2013-09-18 20:33:00,
2013-09-18 15:38:00,85.4,69.4,29.93,SSW,194,0.0,10.0,59,0.00,,SCT090,0.00,VWS V14.01,2013-09-18 20:38:00,
2013-09-18 15:40:00,85.4,69.4,29.93,SSW,194,0.0,10.0,59,0.00,,CLR,0.00,VWS V14.01,2013-09-18 20:40:00,
2013-09-18 15:43:00,85.2,69.8,29.93,SW,215,2.0,7.0,60,0.00,,SCT110,0.00,VWS V14.01,2013-09-18 20:43:00,
2013-09-18 15:48:00,85.3,69.8,29.93,WNW,285,2.0,4.0,60,0.00,,SCT110,0.00,VWS V14.01,2013-09-18 20:48:00,
2013-09-18 15:50:00,85.2,69.8,29.93,West,263,2.0,7.0,60,0.00,,CLR,0.00,VWS V14.01,2013-09-18 20:50:00,
2013-09-18 15:53:00,85.6,70.1,29.93,South,188,3.0,5.0,60,0.00,,SCT110,0.00,VWS V14.01,2013-09-18 20:53:00,
2013-09-18 15:58:00,85.4,69.9,29.93,SW,231,3.0,5.0,60,0.00,,SCT110,0.00,VWS V14.01,2013-09-18 20:58:00,
2013-09-18 16:00:00,85.4,69.9,29.93,SSW,204,3.0,14.0,60,0.00,,CLR,0.00,VWS V14.01,2013-09-18 21:00:00,
2013-09-18 16:04:00,85.4,69.9,29.92,SE,141,7.0,7.0,60,0.00,,SCT095,0.00,VWS V14.01,2013-09-18 21:04:00,
2013-09-18 16:09:00,85.2,69.8,29.93,WNW,291,2.0,4.0,60,0.00,,SCT095,0.00,VWS V14.01,2013-09-18 21:09:00,
2013-09-18 16:10:00,85.3,69.8,29.93,SSW,206,3.0,11.0,60,0.00,,CLR,0.00,VWS V14.01,2013-09-18 21:10:00,
2013-09-18 16:14:00,85.2,70.2,29.93,WNW,290,2.0,10.0,61,0.00,,SCT095,0.00,VWS V14.01,2013-09-18 21:14:00,
2013-09-18 16:19:00,85.1,69.7,29.92,WSW,245,2.0,9.0,60,0.00,,CLR,0.00,VWS V14.01,2013-09-18 21:19:00,
2013-09-18 16:20:00,85.1,70.2,29.92,West,269,4.0,10.0,61,0.00,,CLR,0.00,VWS V14.01,2013-09-18 21:20:00,
2013-09-18 16:25:00,84.8,69.9,29.92,SW,225,2.0,9.0,61,0.00,,CLR,0.00,VWS V14.01,2013-09-18 21:25:00,
2013-09-18 16:30:00,84.9,69.5,29.92,West,263,2.0,8.0,60,0.00,,CLR,0.00,VWS V14.01,2013-09-18 21:30:00,
2013-09-18 16:35:00,84.8,69.9,29.92,West,264,2.0,9.0,61,0.00,,CLR,0.00,VWS V14.01,2013-09-18 21:35:00,
2013-09-18 16:40:00,84.7,70.2,29.93,SSE,158,2.0,9.0,62,0.00,,CLR,0.00,VWS V14.01,2013-09-18 21:40:00,
2013-09-18 16:41:00,84.5,70.1,29.93,NW,319,2.0,6.0,62,0.00,,CLR,0.00,VWS V14.01,2013-09-18 21:41:00,
2013-09-18 16:46:00,84.4,70.0,29.93,SW,224,4.0,8.0,62,0.00,,CLR,0.00,VWS V14.01,2013-09-18 21:46:00,
2013-09-18 16:50:00,84.3,69.9,29.93,South,191,2.0,8.0,62,0.00,,CLR,0.00,VWS V14.01,2013-09-18 21:50:00,
2013-09-18 16:51:00,84.4,70.0,29.92,West,274,1.0,11.0,62,0.00,,CLR,0.00,VWS V14.01,2013-09-18 21:51:00,
2013-09-18 16:56:00,84.6,70.6,29.92,SSE,160,2.0,11.0,63,0.00,,CLR,0.00,VWS V14.01,2013-09-18 21:56:00,
2013-09-18 17:00:00,84.6,70.2,29.92,West,271,4.0,11.0,62,0.00,,CLR,0.00,VWS V14.01,2013-09-18 22:00:00,
2013-09-18 17:01:00,84.6,70.2,29.92,SSE,162,4.0,7.0,62,0.00,,CLR,0.00,VWS V14.01,2013-09-18 22:01:00,
2013-09-18 17:06:00,84.5,70.5,29.92,West,280,1.0,7.0,63,0.00,,CLR,0.00,VWS V14.01,2013-09-18 22:06:00,
2013-09-18 17:10:00,84.5,70.1,29.92,WSW,245,3.0,7.0,62,0.00,,CLR,0.00,VWS V14.01,2013-09-18 22:10:00,
2013-09-18 17:11:00,84.4,70.0,29.92,South,181,1.0,6.0,62,0.00,,CLR,0.00,VWS V14.01,2013-09-18 22:11:00,
2013-09-18 17:17:00,84.4,70.0,29.92,SW,231,4.0,6.0,62,0.00,,CLR,0.00,VWS V14.01,2013-09-18 22:17:00,
2013-09-18 17:20:00,84.4,70.0,29.92,South,176,3.0,6.0,62,0.00,,CLR,0.00,VWS V14.01,2013-09-18 22:20:00,
2013-09-18 17:22:00,84.4,70.0,29.92,WSW,242,1.0,9.0,62,0.00,,CLR,0.00,VWS V14.01,2013-09-18 22:22:00,
2013-09-18 17:27:00,84.3,70.3,29.92,SSE,160,1.0,9.0,63,0.00,,CLR,0.00,VWS V14.01,2013-09-18 22:27:00,
2013-09-18 17:30:00,84.3,70.3,29.92,South,191,1.0,9.0,63,0.00,,CLR,0.00,VWS V14.01,2013-09-18 22:30:00,
2013-09-18 17:32:00,84.2,70.2,29.92,SSE,153,5.0,6.0,63,0.00,,CLR,0.00,VWS V14.01,2013-09-18 22:32:00,
2013-09-18 17:37:00,84.1,70.2,29.92,WSW,245,1.0,7.0,63,0.00,,CLR,0.00,VWS V14.01,2013-09-18 22:37:00,
2013-09-18 17:40:00,84.1,70.2,29.92,SE,128,4.0,7.0,63,0.00,,CLR,0.00,VWS V14.01,2013-09-18 22:40:00,
2013-09-18 17:42:00,83.9,70.4,29.92,West,269,2.0,10.0,64,0.00,,SCT070,0.00,VWS V14.01,2013-09-18 22:42:00,
2013-09-18 17:48:00,83.7,70.2,29.92,WSW,240,3.0,10.0,64,0.00,,SCT070,0.00,VWS V14.01,2013-09-18 22:48:00,
2013-09-18 17:50:00,83.7,70.2,29.92,SSW,206,3.0,10.0,64,0.00,,CLR,0.00,VWS V14.01,2013-09-18 22:50:00,
2013-09-18 17:53:00,83.7,70.2,29.92,North,353,2.0,5.0,64,0.00,,SCT070,0.00,VWS V14.01,2013-09-18 22:53:00,
2013-09-18 17:58:00,83.5,70.5,29.92,West,271,1.0,7.0,65,0.00,,SCT070,0.00,VWS V14.01,2013-09-18 22:58:00,
2013-09-18 18:00:00,83.5,70.5,29.92,West,270,1.0,7.0,65,0.00,,CLR,0.00,VWS V14.01,2013-09-18 23:00:00,
2013-09-18 18:03:00,83.4,70.4,29.91,SSE,148,2.0,5.0,65,0.00,,SCT070,0.00,VWS V14.01,2013-09-18 23:03:00,
2013-09-18 18:08:00,83.2,70.2,29.91,SW,228,1.0,1.0,65,0.00,,SCT070,0.00,VWS V14.01,2013-09-18 23:08:00,
2013-09-18 18:10:00,83.2,70.2,29.91,SW,228,1.0,5.0,65,0.00,,CLR,0.00,VWS V14.01,2013-09-18 23:10:00,
2013-09-18 18:13:00,82.9,70.4,29.91,West,264,1.0,4.0,66,0.00,,SCT070,0.00,VWS V14.01,2013-09-18 23:13:00,
2013-09-18 18:18:00,82.7,70.2,29.91,South,190,1.0,4.0,66,0.00,,SCT070,0.00,VWS V14.01,2013-09-18 23:18:00,
2013-09-18 18:20:00,82.7,70.2,29.91,South,190,4.0,5.0,66,0.00,,CLR,0.00,VWS V14.01,2013-09-18 23:20:00,
2013-09-18 18:23:00,82.4,70.3,29.91,SW,217,2.0,6.0,67,0.00,,CLR,0.00,VWS V14.01,2013-09-18 23:23:00,
2013-09-18 18:28:00,82.3,70.3,29.91,West,259,2.0,5.0,67,0.00,,CLR,0.00,VWS V14.01,2013-09-18 23:28:00,
2013-09-18 18:30:00,82.3,70.2,29.91,WSW,253,0.0,6.0,67,0.00,,CLR,0.00,VWS V14.01,2013-09-18 23:30:00,
2013-09-18 18:34:00,82.0,70.4,29.92,WSW,242,1.0,8.0,68,0.00,,CLR,0.00,VWS V14.01,2013-09-18 23:34:00,
2013-09-18 18:39:00,81.8,70.2,29.91,West,264,0.0,3.0,68,0.00,,CLR,0.00,VWS V14.01,2013-09-18 23:39:00,
2013-09-18 18:40:00,81.9,70.3,29.91,West,262,2.0,8.0,68,0.00,,CLR,0.00,VWS V14.01,2013-09-18 23:40:00,
2013-09-18 18:44:00,81.6,70.4,29.91,SW,219,0.0,4.0,69,0.00,,CLR,0.00,VWS V14.01,2013-09-18 23:44:00,
2013-09-18 18:49:00,81.3,70.2,29.91,SW,228,1.0,1.0,69,0.00,,CLR,0.00,VWS V14.01,2013-09-18 23:49:00,
2013-09-18 18:50:00,81.4,70.3,29.91,SSW,207,1.0,5.0,69,0.00,,CLR,0.00,VWS V14.01,2013-09-18 23:50:00,
2013-09-18 18:54:00,81.1,70.4,29.91,WSW,251,1.0,5.0,70,0.00,,CLR,0.00,VWS V14.01,2013-09-18 23:54:00,
2013-09-18 18:59:00,80.9,70.2,29.91,SSE,160,1.0,2.0,70,0.00,,CLR,0.00,VWS V14.01,2013-09-18 23:59:00,
2013-09-18 19:00:00,80.9,70.2,29.91,SW,226,1.0,5.0,70,0.00,,CLR,0.00,VWS V14.01,2013-09-19 00:00:00,
2013-09-18 19:05:00,80.6,70.3,29.92,SSE,163,0.0,4.0,71,0.00,,CLR,0.00,VWS V14.01,2013-09-19 00:05:00,
2013-09-18 19:10:00,80.4,70.1,29.92,SSE,155,3.0,3.0,71,0.00,,CLR,0.00,VWS V14.01,2013-09-19 00:10:00,
2013-09-18 19:15:00,80.1,70.3,29.92,SSE,153,1.0,5.0,72,0.00,,CLR,0.00,VWS V14.01,2013-09-19 00:15:00,
2013-09-18 19:20:00,79.8,70.0,29.92,North,354,1.0,4.0,72,0.00,,CLR,0.00,VWS V14.01,2013-09-19 00:20:00,
2013-09-18 19:26:00,79.6,70.2,29.92,WSW,241,0.0,4.0,73,0.00,,CLR,0.00,VWS V14.01,2013-09-19 00:26:00,
2013-09-18 19:30:00,79.6,70.2,29.92,South,183,1.0,5.0,73,0.00,,CLR,0.00,VWS V14.01,2013-09-19 00:30:00,
2013-09-18 19:31:00,79.5,70.5,29.92,SW,225,0.0,2.0,74,0.00,,CLR,0.00,VWS V14.01,2013-09-19 00:31:00,
2013-09-18 19:36:00,79.3,70.3,29.92,SW,219,1.0,8.0,74,0.00,,CLR,0.00,VWS V14.01,2013-09-19 00:36:00,
2013-09-18 19:40:00,79.3,70.3,29.92,SSW,198,3.0,8.0,74,0.00,,CLR,0.00,VWS V14.01,2013-09-19 00:40:00,
2013-09-18 19:41:00,79.2,70.2,29.92,WSW,253,1.0,3.0,74,0.00,,CLR,0.00,VWS V14.01,2013-09-19 00:41:00,
2013-09-18 19:47:00,79.2,70.2,29.92,SW,216,1.0,5.0,74,0.00,,CLR,0.00,VWS V14.01,2013-09-19 00:47:00,
2013-09-18 19:50:00,79.1,70.5,29.92,SE,146,2.0,5.0,75,0.00,,CLR,0.00,VWS V14.01,2013-09-19 00:50:00,
2013-09-18 19:52:00,79.0,70.4,29.92,SW,228,2.0,7.0,75,0.00,,CLR,0.00,VWS V14.01,2013-09-19 00:52:00,
2013-09-18 19:57:00,78.9,70.3,29.92,SW,219,0.0,7.0,75,0.00,,CLR,0.00,VWS V14.01,2013-09-19 00:57:00,
2013-09-18 20:00:00,78.9,70.3,29.92,SSE,165,2.0,7.0,75,0.00,,CLR,0.00,VWS V14.01,2013-09-19 01:00:00,
2013-09-18 20:02:00,78.9,70.3,29.92,WSW,248,4.0,7.0,75,0.00,,CLR,0.00,VWS V14.01,2013-09-19 01:02:00,
2013-09-18 20:07:00,78.9,70.3,29.92,SSW,203,2.0,7.0,75,0.00,,CLR,0.00,VWS V14.01,2013-09-19 01:07:00,
2013-09-18 20:10:00,78.8,70.2,29.92,WSW,253,2.0,7.0,75,0.00,,CLR,0.00,VWS V14.01,2013-09-19 01:10:00,
2013-09-18 20:12:00,78.8,70.6,29.92,SSW,200,2.0,6.0,76,0.00,,CLR,0.00,VWS V14.01,2013-09-19 01:12:00,
2013-09-18 20:17:00,78.7,70.5,29.92,South,190,1.0,6.0,76,0.00,,CLR,0.00,VWS V14.01,2013-09-19 01:17:00,
2013-09-18 20:20:00,78.7,70.5,29.92,SW,225,1.0,6.0,76,0.00,,CLR,0.00,VWS V14.01,2013-09-19 01:20:00,
2013-09-18 20:23:00,78.6,70.4,29.92,SW,236,2.0,5.0,76,0.00,,SCT120,0.00,VWS V14.01,2013-09-19 01:23:00,
2013-09-18 20:28:00,78.6,70.4,29.92,West,260,2.0,5.0,76,0.00,,SCT120,0.00,VWS V14.01,2013-09-19 01:28:00,
2013-09-18 20:30:00,78.6,70.4,29.92,ENE,78,2.0,5.0,76,0.00,,CLR,0.00,VWS V14.01,2013-09-19 01:30:00,
2013-09-18 20:33:00,78.5,70.3,29.92,WSW,256,1.0,5.0,76,0.00,,SCT120,0.00,VWS V14.01,2013-09-19 01:33:00,
2013-09-18 20:38:00,78.3,70.5,29.92,SE,143,4.0,6.0,77,0.00,,SCT120,0.00,VWS V14.01,2013-09-19 01:38:00,
2013-09-18 20:40:00,78.3,70.5,29.92,SSE,150,1.0,5.0,77,0.00,,CLR,0.00,VWS V14.01,2013-09-19 01:40:00,
2013-09-18 20:44:00,78.2,70.4,29.92,WSW,245,4.0,8.0,77,0.00,,SCT110,0.00,VWS V14.01,2013-09-19 01:44:00,
2013-09-18 20:49:00,78.2,70.4,29.92,SSE,166,2.0,4.0,77,0.00,,SCT110,0.00,VWS V14.01,2013-09-19 01:49:00,
2013-09-18 20:50:00,78.1,70.3,29.92,WNW,295,3.0,8.0,77,0.00,,CLR,0.00,VWS V14.01,2013-09-19 01:50:00,
2013-09-18 20:54:00,78.1,70.3,29.92,WSW,251,1.0,4.0,77,0.00,,SCT110,0.00,VWS V14.01,2013-09-19 01:54:00,
2013-09-18 20:59:00,78.0,70.2,29.93,SW,229,1.0,2.0,77,0.00,,SCT110,0.00,VWS V14.01,2013-09-19 01:59:00,
2013-09-18 21:00:00,78.0,70.2,29.93,SW,225,2.0,4.0,77,0.00,,CLR,0.00,VWS V14.01,2013-09-19 02:00:00,
2013-09-18 21:04:00,77.9,70.5,29.93,South,170,1.0,4.0,78,0.00,,SCT110,0.00,VWS V14.01,2013-09-19 02:04:00,
2013-09-18 21:09:00,77.9,70.5,29.92,WNW,293,1.0,4.0,78,0.00,,SCT110,0.00,VWS V14.01,2013-09-19 02:09:00,
2013-09-18 21:10:00,77.9,70.5,29.93,WSW,243,2.0,5.0,78,0.00,,CLR,0.00,VWS V14.01,2013-09-19 02:10:00,
2013-09-18 21:14:00,77.7,70.3,29.92,SSE,156,3.0,6.0,78,0.00,,BKN120,0.00,VWS V14.01,2013-09-19 02:14:00,
2013-09-18 21:20:00,77.4,70.8,29.92,West,265,0.0,6.0,80,0.00,,OVC110,0.00,VWS V14.01,2013-09-19 02:20:00,
2013-09-18 21:25:00,77.1,70.8,29.93,WNW,300,5.0,9.0,81,0.00,,OVC110,0.00,VWS V14.01,2013-09-19 02:25:00,
2013-09-18 21:30:00,76.8,70.9,29.93,SSW,207,2.0,6.0,82,0.01,,OVC110,0.01,VWS V14.01,2013-09-19 02:30:00,
2013-09-18 21:35:00,76.0,70.8,29.93,East,93,2.0,6.0,84,0.01,,OVC110,0.01,VWS V14.01,2013-09-19 02:35:00,
2013-09-18 21:40:00,75.4,70.9,29.93,SSE,150,2.0,5.0,86,0.01,,BKN120,0.01,VWS V14.01,2013-09-19 02:40:00,
2013-09-18 21:45:00,75.0,70.9,29.93,SW,221,1.0,8.0,87,0.01,,BKN120,0.01,VWS V14.01,2013-09-19 02:45:00,
2013-09-18 21:50:00,74.7,70.9,29.93,South,172,0.0,3.0,88,0.01,,BKN120,0.01,VWS V14.01,2013-09-19 02:50:00,
2013-09-18 21:56:00,74.5,70.7,29.93,SSE,148,2.0,5.0,88,0.01,,BKN120,0.01,VWS V14.01,2013-09-19 02:56:00,
2013-09-18 22:00:00,74.4,70.6,29.93,ESE,102,2.0,5.0,88,0.01,,CLR,0.01,VWS V14.01,2013-09-19 03:00:00,
2013-09-18 22:01:00,74.2,70.8,29.93,SSE,155,2.0,2.0,89,0.01,,BKN120,0.01,VWS V14.01,2013-09-19 03:01:00,
2013-09-18 22:06:00,74.0,70.6,29.94,SE,139,0.0,2.0,89,0.01,,BKN120,0.01,VWS V14.01,2013-09-19 03:06:00,
2013-09-18 22:10:00,73.9,70.8,29.94,SE,138,0.0,2.0,90,0.01,,CLR,0.01,VWS V14.01,2013-09-19 03:10:00,
2013-09-18 22:11:00,73.8,70.7,29.94,SSW,211,1.0,5.0,90,0.01,,BKN120,0.01,VWS V14.01,2013-09-19 03:11:00,
2013-09-18 22:16:00,73.7,70.6,29.94,WSW,242,0.0,5.0,90,0.01,,BKN120,0.01,VWS V14.01,2013-09-19 03:16:00,
2013-09-18 22:20:00,73.7,70.6,29.94,SW,228,0.0,5.0,90,0.01,,CLR,0.01,VWS V14.01,2013-09-19 03:20:00,
2013-09-18 22:22:00,73.6,70.5,29.94,SSE,165,0.0,4.0,90,0.01,,SCT120,0.01,VWS V14.01,2013-09-19 03:22:00,
2013-09-18 22:27:00,73.5,70.7,29.94,SSE,155,0.0,4.0,91,0.01,,SCT120,0.01,VWS V14.01,2013-09-19 03:27:00,
2013-09-18 22:30:00,73.5,70.7,29.94,SSE,155,0.0,4.0,91,0.01,,CLR,0.01,VWS V14.01,2013-09-19 03:30:00,
2013-09-18 22:32:00,73.4,70.6,29.94,SSE,163,1.0,5.0,91,0.01,,SCT120,0.01,VWS V14.01,2013-09-19 03:32:00,
2013-09-18 22:37:00,73.5,70.7,29.94,SSE,157,0.0,5.0,91,0.01,,SCT120,0.01,VWS V14.01,2013-09-19 03:37:00,
2013-09-18 22:40:00,73.5,70.7,29.94,SSE,160,1.0,5.0,91,0.01,,CLR,0.01,VWS V14.01,2013-09-19 03:40:00,
2013-09-18 22:42:00,73.5,70.7,29.94,SW,214,0.0,3.0,91,0.00,,SCT120,0.01,VWS V14.01,2013-09-19 03:42:00,
2013-09-18 22:47:00,73.6,70.8,29.95,WSW,246,1.0,4.0,91,0.00,,SCT120,0.01,VWS V14.01,2013-09-19 03:47:00,
2013-09-18 22:50:00,73.5,70.7,29.95,West,259,1.0,4.0,91,0.00,,CLR,0.01,VWS V14.01,2013-09-19 03:50:00,
2013-09-18 22:53:00,73.7,70.6,29.95,SSE,156,1.0,4.0,90,0.00,,SCT120,0.01,VWS V14.01,2013-09-19 03:53:00,
2013-09-18 22:58:00,73.7,70.6,29.94,SSE,162,3.0,3.0,90,0.00,,SCT120,0.01,VWS V14.01,2013-09-19 03:58:00,
2013-09-18 23:00:00,73.7,70.6,29.95,SE,134,2.0,7.0,90,0.00,,CLR,0.01,VWS V14.01,2013-09-19 04:00:00,
2013-09-18 23:01:00,73.7,70.6,29.94,WSW,258,1.0,5.0,90,0.00,,SCT120,0.01,VWS V14.01,2013-09-19 04:01:00,
2013-09-18 23:02:00,73.7,70.6,29.94,SSE,160,2.0,5.0,90,0.00,,SCT120,0.01,VWS V14.01,2013-09-19 04:02:00,
2013-09-18 23:03:00,73.7,70.6,29.94,South,173,2.0,5.0,90,0.00,,SCT120,0.01,VWS V14.01,2013-09-19 04:03:00,
2013-09-18 23:08:00,73.8,70.7,29.95,SSW,200,2.0,4.0,90,0.00,,SCT120,0.01,VWS V14.01,2013-09-19 04:08:00,
2013-09-18 23:10:00,73.8,70.7,29.94,SSE,158,1.0,6.0,90,0.00,,CLR,0.01,VWS V14.01,2013-09-19 04:10:00,
2013-09-18 23:13:00,73.9,70.5,29.94,WSW,245,4.0,5.0,89,0.00,,SCT120,0.01,VWS V14.01,2013-09-19 04:13:00,
2013-09-18 23:18:00,74.0,70.6,29.95,SSE,151,2.0,2.0,89,0.00,,SCT120,0.01,VWS V14.01,2013-09-19 04:18:00,
2013-09-18 23:20:00,74.0,70.6,29.95,WSW,246,0.0,5.0,89,0.00,,OVC018,0.01,VWS V14.01,2013-09-19 04:20:00,
2013-09-18 23:23:00,74.0,70.6,29.95,SE,146,3.0,5.0,89,0.00,,SCT120,0.01,VWS V14.01,2013-09-19 04:23:00,
2013-09-18 23:28:00,74.0,70.6,29.95,SSE,162,5.0,6.0,89,0.00,,SCT120,0.01,VWS V14.01,2013-09-19 04:28:00,
2013-09-18 23:30:00,74.0,70.6,29.95,SSE,159,1.0,9.0,89,0.00,,CLR,0.01,VWS V14.01,2013-09-19 04:30:00,
2013-09-18 23:34:00,74.1,70.7,29.94,SE,134,1.0,6.0,89,0.00,,SCT120,0.01,VWS V14.01,2013-09-19 04:34:00,
2013-09-18 23:39:00,74.1,70.7,29.95,WSW,257,4.0,5.0,89,0.00,,SCT120,0.01,VWS V14.01,2013-09-19 04:39:00,
2013-09-18 23:40:00,74.1,70.7,29.94,WSW,240,2.0,6.0,89,0.00,,CLR,0.01,VWS V14.01,2013-09-19 04:40:00,
2013-09-18 23:44:00,74.2,70.4,29.94,WSW,245,2.0,5.0,88,0.00,,SCT120,0.01,VWS V14.01,2013-09-19 04:44:00,
2013-09-18 23:49:00,74.2,70.4,29.94,South,180,1.0,4.0,88,0.00,,SCT120,0.01,VWS V14.01,2013-09-19 04:49:00,
2013-09-18 23:50:00,74.2,70.4,29.94,SSW,210,2.0,5.0,88,0.00,,CLR,0.01,VWS V14.01,2013-09-19 04:50:00,
2013-09-18 23:54:00,74.3,70.5,29.95,West,266,1.0,6.0,88,0.00,,SCT120,0.01,VWS V14.01,2013-09-19 04:54:00,
2013-09-18 23:59:00,74.3,70.5,29.95,SE,145,2.0,2.0,88,0.00,,SCT120,0.00,VWS V14.01,2013-09-19 04:59:00,